Home > Weather > Dreieich > Past weeks

Flag for Germany Past Weather in Dreieich, Hesse, Germany — Yesterday and Last 2 Weeks

Now
68 °F

Thundershowers. Partly cloudy.


Feels Like: 68 °F
Forecast: 56 / 69 °F
Wind: 10 mph from South

Location: Frankfurt-M-Flughafen Airport

Current Time: Jun 25, 2016 at 3:52:22 AM

Latest Report: Jun 25, 2016 at 3:20 AM


Visibility: 6 mi

Pressure: 29.98 "Hg

Humidity: 94%

Dew Point: 66 °F

Location of DreieichLocation

Past Weather in Dreieich — Graph

°F

Dreieich Temperature Yesterday

Maximum temperature yesterday: 90 °F (at 2:20 PM)
Minimum temperature yesterday: 68 °F (at 3:20 AM)
Average temperature yesterday: 78 °F

High & Low Weather Summary for the Past Weeks

 TemperatureHumidityPressure
High93 °F (Jun 23, 4:50 PM)100% (Jun 12, 9:50 PM)30.27 "Hg (Jun 12, 9:50 PM)
Low45 °F (Jun 20, 4:50 AM)30% (Jun 23, 4:50 PM)29.50 "Hg (Jun 14, 2:20 PM)
Average64 °F77%29.89 "Hg
* Reported Jun 10 2:20 AM — Jun 25 2:50 AM, Dreieich, Weather by CustomWeather, © 2016

Note: Actual official high and low records may vary slightly from our data, if they occured in-between our weather recording intervals... More about our weather records

Advertising

Dreieich Weather History for the Previous 24 Hours

Scroll right to see more
 ConditionsComfort  
Time TempWeatherWind HumidityBarometerVisibility
2:50 AM
Sat, Jun 25
68 °FThundershowers. Partly cloudy.3 mph94%29.95 "HgN/A
2:20 AM68 °FPassing clouds.3 mph94%29.95 "HgN/A
1:50 AM70 °FPassing clouds.6 mph88%29.95 "HgN/A
1:20 AM70 °FClear.6 mph88%29.98 "Hg10 mi
12:50 AM70 °FClear.6 mph88%29.98 "Hg10 mi
12:20 AM70 °FClear.9 mph88%30.01 "Hg10 mi
11:50 PM
Fri, Jun 24
72 °FClear.8 mph83%30.01 "Hg10 mi
11:20 PM72 °FClear.6 mph83%30.01 "Hg10 mi
10:50 PM72 °FPassing clouds.6 mph83%29.98 "HgN/A
10:20 PM73 °FPassing clouds.3 mph78%30.01 "HgN/A
9:50 PM73 °FPassing clouds.7 mph78%29.98 "HgN/A
9:20 PM77 °FScattered clouds.8 mph69%29.98 "HgN/A
8:50 PM77 °FSprinkles. Scattered clouds.7 mph69%29.98 "HgN/A
8:20 PM77 °FPartly sunny.7 mph69%30.01 "HgN/A
7:50 PM77 °FThundershowers. Scattered clouds.15 mph65%30.01 "HgN/A
7:20 PM79 °FScattered clouds.16 mph65%29.98 "HgN/A
6:50 PM82 °FScattered clouds.10 mph62%29.98 "HgN/A
6:20 PM82 °FPassing clouds.14 mph62%29.98 "HgN/A
5:50 PM82 °FPassing clouds.13 mph62%29.98 "HgN/A
5:20 PM84 °FPassing clouds.15 mph55%29.98 "HgN/A
4:50 PM84 °FPassing clouds.10 mph45%29.98 "HgN/A
4:20 PM86 °FPassing clouds.12 mph46%29.98 "HgN/A
3:50 PM86 °FPassing clouds.6 mph46%29.98 "HgN/A
3:20 PM82 °FPassing clouds.10 mph51%30.01 "HgN/A
2:50 PM82 °FThundershowers. Passing clouds.24 mph48%30.01 "HgN/A
2:20 PM90 °FPassing clouds.9 mph46%29.98 "HgN/A
1:50 PM88 °FPassing clouds.7 mph46%30.01 "HgN/A
1:20 PM88 °FPassing clouds.3 mph55%29.98 "HgN/A
12:50 PM88 °FPassing clouds.5 mph49%30.01 "HgN/A
12:20 PM86 °FPassing clouds.5 mph52%30.01 "HgN/A
11:50 AM86 °FPassing clouds.6 mph59%30.01 "HgN/A
11:20 AM84 °FPassing clouds.6 mph58%30.01 "HgN/A
10:50 AM82 °FPassing clouds.5 mph62%30.01 "HgN/A
10:20 AM82 °FPassing clouds.5 mph62%30.01 "HgN/A
9:20 AM81 °FPassing clouds.6 mph62%30.01 "HgN/A
8:50 AM79 °FSunny.2 mph65%30.01 "Hg10 mi
8:20 AM79 °FPassing clouds.5 mph61%30.04 "HgN/A
7:50 AM77 °FPassing clouds.6 mph65%30.04 "HgN/A
7:20 AM75 °FSunny.6 mph69%30.01 "Hg10 mi
6:50 AM73 °FPassing clouds.6 mph74%30.01 "HgN/A
6:20 AM72 °FSunny.5 mph78%30.01 "Hg10 mi
5:50 AM72 °FPassing clouds.8 mph78%30.01 "HgN/A
5:20 AM68 °FClear.5 mph88%30.01 "Hg10 mi
4:50 AM70 °FClear.5 mph83%30.01 "Hg10 mi
4:20 AM68 °FClear.6 mph88%30.01 "Hg10 mi
3:50 AM68 °FClear.6 mph88%30.01 "Hg10 mi
3:20 AM68 °FPassing clouds.5 mph88%30.01 "HgN/A
Weather by CustomWeather, © 2016

See weather overviewHow to use our weather pages